Location: Mahannah Oil Field
(37.4664°N, 96.6003°W)
Time: 20:25:35
(UTC+00:00)

Transit 2A Rocket - Pass Details

Date: 25 January 2021
Orbit: 594 x 908 km, 66.7° (Epoch: 05 March)

Event Time Altitude Azimuth Distance (km) Brightness Sun altitude
Rises 18:31:53 0° 223° (SW) 3,376 8.9 33.7°
Reaches altitude 10° 18:34:31 10° 230° (SW) 2,399 8.2 33.8°
Maximum altitude 18:39:46 44° 302° (WNW) 1,047 5.9 33.8°
Drops below altitude 10° 18:44:36 10° 15° (NNE) 2,207 7.0 33.8°
Sets 18:46:58 0° 22° (NNE) 3,080 7.6 33.7°
